Location: Newark
(25.6108°S, 54.5803°W)
Time: 05:05:51
(UTC+00:00)

deb Explorer IX - Pass Details

Date: 28 October 2020
Orbit: 538 x 1104 km, 38.8° (Epoch: 29 November)

Event Time Altitude Azimuth Distance (km) Brightness Sun altitude
Rises 17:39:58 0° 338° (NNW) 3,721 ? 55.4°
Reaches altitude 10° 17:43:28 10° 353° (N) 2,684 ? 54.7°
Maximum altitude 17:48:03 21° 39° (NE) 1,907 ? 53.7°
Drops below altitude 10° 17:52:12 10° 85° (E) 2,409 ? 52.8°
Sets 17:55:08 0° 102° (ESE) 3,234 ? 52.1°
